Change the Weather History Date:

Friday, December 3, 2010

  Actual Average Record
Temperature  
Mean Temperature 23 °F 27 °F  
Max Temperature 30 °F 36 °F 68 °F (2012)
Min Temperature 15 °F 18 °F 0 °F (2000)
Degree Days  
Heating Degree Days 42 38  
Month to date heating degree days 121 112  
Since 1 July heating degree days 1372 1566  
Cooling Degree Days 0 0  
Month to date cooling degree days 0 0  
Year to date cooling degree days 980 752  
Moisture  
Dew Point 19 °F    
Average Humidity 81    
Maximum Humidity 92    
Minimum Humidity 69    
Precipitation  
Precipitation 0.00 in 0.05 in 1.03 in (2011)
Month to date precipitation T 0.18  
Year to date precipitation 49.14  
Sea Level Pressure  
Sea Level Pressure 30.12 in    
Wind  
Wind Speed 9 mph (ESE)    
Max Wind Speed 21 mph    
Max Gust Speed 28 mph    
Visibility 10 miles    
Events      
T = Trace of Precipitation, MM = Missing Value Source: NWS Daily Summary

Daily Weather History Graph

Daily Weather History Graph

Search for Another Location

Airport or City:

Trip Planner

Search our weather history database for the weather conditions in past years. The results will help you decide how hot, cold, wet, or windy it might be!

Date:

Astronomy

Dec. 03, 2010 Rise Set
Actual Time 7:24 AM CST 4:43 PM CST
Civil Twilight 6:53 AM CST 5:14 PM CST
Nautical Twilight 6:18 AM CST 5:49 PM CST
Astronomical Twilight 5:45 AM CST 6:23 PM CST
Moon 5:13 AM CST (12/3) 3:00 PM CST (12/3)
Length of Visible Light 10h 21m
Length of Day
9h 18m
Waning Crescent, 5% of the Moon is Illuminated
Dec 3
Waning Crescent
Dec 5
New
Dec 13
First Quarter
Dec 21
Full
Dec 27
Last Quarter

Hourly Weather History & Observations

Time (CST) Temp. Windchill Dew Point Humidity Pressure Visibility Wind Dir Wind Speed Gust Speed Precip Events Conditions
12:53 AM 17.1 °F 10.0 °F 14.0 °F 88% 30.27 in 9.0 mi NNW 4.6 mph - N/A   Clear
1:53 AM 16.0 °F 8.8 °F 12.9 °F 88% 30.26 in 8.0 mi North 4.6 mph - N/A   Clear
2:53 AM 16.0 °F - 12.9 °F 88% 30.27 in 8.0 mi Calm Calm - N/A   Clear
4:53 AM 18.0 °F 11.1 °F 15.1 °F 88% 30.26 in 10.0 mi ENE 4.6 mph - N/A   Clear
5:53 AM 17.1 °F 11.7 °F 12.9 °F 84% 30.25 in 9.0 mi ENE 3.5 mph - N/A   Partly Cloudy
6:53 AM 18.0 °F 8.7 °F 14.0 °F 84% 30.24 in 9.0 mi East 6.9 mph - N/A   Scattered Clouds
7:53 AM 19.0 °F 11.1 °F 14.0 °F 81% 30.26 in 10.0 mi East 5.8 mph - N/A   Overcast
8:53 AM 19.9 °F 9.3 °F 15.1 °F 81% 30.23 in 10.0 mi ESE 9.2 mph - N/A   Mostly Cloudy
10:53 AM 23.0 °F 13.1 °F 19.0 °F 85% 30.20 in 9.0 mi ESE 9.2 mph - N/A   Clear
11:53 AM 26.1 °F 15.6 °F 19.9 °F 78% 30.15 in 9.0 mi ESE 11.5 mph - N/A   Clear
12:53 PM 28.9 °F 18.6 °F 21.0 °F 72% 30.12 in 10.0 mi SE 12.7 mph - N/A   Clear
1:53 PM 28.9 °F 19.2 °F 21.0 °F 72% 30.10 in 10.0 mi ESE 11.5 mph - N/A   Partly Cloudy
2:53 PM 30.0 °F 21.1 °F 21.0 °F 69% 30.06 in 10.0 mi SE 10.4 mph 23.0 mph N/A   Overcast
3:53 PM 30.0 °F 19.5 °F 21.9 °F 72% 30.02 in 10.0 mi ESE 13.8 mph 25.3 mph N/A   Mostly Cloudy
4:53 PM 30.0 °F 19.5 °F 21.9 °F 72% 29.99 in 10.0 mi SE 13.8 mph 24.2 mph N/A   Overcast
5:53 PM 28.9 °F 18.2 °F 21.9 °F 75% 29.99 in 10.0 mi ESE 13.8 mph 23.0 mph N/A   Overcast
6:53 PM 28.9 °F 18.2 °F 21.9 °F 75% 30.00 in 10.0 mi SE 13.8 mph - N/A   Overcast
7:53 PM 28.9 °F 21.9 °F 21.9 °F 75% 30.04 in 10.0 mi ESE 6.9 mph - N/A   Mostly Cloudy
8:53 PM 28.9 °F 19.2 °F 21.9 °F 75% 30.01 in 10.0 mi ESE 11.5 mph - N/A   Overcast
9:53 PM 28.9 °F 19.2 °F 23.0 °F 78% 30.01 in 10.0 mi SE 11.5 mph - N/A   Overcast
10:53 PM 28.9 °F 21.1 °F 23.0 °F 78% 30.01 in 10.0 mi SE 8.1 mph - N/A   Overcast
11:53 PM 28.9 °F 22.8 °F 23.0 °F 78% 30.01 in 10.0 mi ESE 5.8 mph - N/A   Overcast